Dewpoint
58 58 62 66 66 66 67 67 67 66 66 65 66 66 65 64 63 62 62 62 62 61 61 61 61 61 60 61 62 62 61 61
58 60 58 60 60 65 65 66 66 65 64 63 64 64 62 61 59 60 61 60 60 60 59 59 59 59 59 58 58 59 58 59
60 58 60 60 58 60 63 64 65 65 64 62 62 60 60 58 60 59 60 59 59 58 57 55 54 57 57 57 58 54 55 55
60 62 61 61 56 61 61 60 60 62 62 63 60 62 61 59 60 59 58 58 57 57 57 58 56 49 51 56 51 55 52 53
59 63 63 61 58 58 56 57 59 60 64 64 63 62 61 60 59 57 58 58 54 54 55 52 55 53 50 53 51 52 47 47
60 61 63 64 58 56 57 56 57 57 59 64 62 60 60 60 56 55 55 54 56 55 54 56 52 49 49 49 48 46 41 44
61 63 63 61 62 58 59 59 57 59 58 59 61 58 58 56 55 53 53 53 53 54 53 50 45 42 44 44 43 44 46 41
62 63 63 58 58 60 58 58 55 55 54 55 59 60 57 54 52 49 49 49 50 52 51 48 44 42 42 44 43 42 43 44
61 61 58 57 55 55 53 51 52 50 50 54 55 56 54 54 50 50 49 50 53 54 53 49 45 40 41 41 42 43 40 42
58 56 53 54 53 53 51 51 53 50 51 51 54 54 55 54 50 49 50 51 50 50 49 47 45 41 40 38 39 39 40 41
56 55 47 48 52 51 52 53 49 45 47 45 48 50 51 53 49 49 52 50 49 49 48 48 46 41 38 38 40 38 38 35
54 49 49 51 51 50 45 45 46 45 43 42 44 44 47 49 48 50 51 50 49 47 49 47 45 44 35 34 38 39 39 38
48 48 46 44 42 40 40 40 41 42 41 45 46 45 45 47 45 47 48 47 48 51 50 49 48 46 43 40 39 41 43 38
43 40 42 41 40 42 43 44 42 43 41 43 42 42 41 40 44 43 44 44 46 48 49 48 47 47 44 41 37 37 38 40
41 42 42 43 42 40 41 42 40 39 39 37 38 40 39 41 42 43 44 44 42 44 46 46 44 46 48 43 38 36 36 37
43 42 42 41 43 41 43 39 38 40 40 38 38 38 38 39 40 43 44 43 43 42 40 44 44 43 43 43 46 44 39 36
45 43 42 42 41 43 41 42 40 40 39 38 37 36 38 38 41 42 43 42 43 45 45 45 44 44 42 42 44 43 42 39
44 41 41 42 42 42 43 44 42 39 37 35 34 35 35 38 39 42 43 42 42 42 43 44 43 43 42 41 40 38 37 37
41 40 39 41 42 40 40 41 41 39 38 35 36 34 35 38 41 41 40 40 40 42 42 42 40 40 40 39 39 39 38 38
42 40 38 38 39 38 38 41 41 38 37 37 36 36 38 41 40 40 40 40 40 41 41 40 39 40 39 39 39 40 39 38
Lifted_Index
-2 -3 -3 -3 -3 -3 -3 -4 -4 -3 -3 -2 -2 -2 -2 -1 -0 -0 -0 0 0 1 1 1 1 1 1 -0 -1 -2 -3 -3
-3 -3 -3 -3 -3 -2 -2 -3 -3 -3 -2 -2 -2 -2 -1 -0 0 1 0 1 1 1 2 2 2 2 2 1 1 -1 -2 -2
-3 -3 -3 -2 -2 -1 -1 -2 -2 -2 -2 -2 -2 -2 -1 -0 1 1 1 1 2 2 3 4 4 4 3 3 2 1 0 0
-3 -3 -3 -2 -1 -1 -1 -1 -2 -2 -3 -3 -2 -2 -2 -1 0 1 2 2 2 3 3 3 3 3 3 3 3 2 2 2
-3 -3 -3 -2 -1 -1 -1 -1 -1 -2 -3 -3 -3 -3 -2 -1 -0 1 1 2 2 2 2 2 3 3 4 3 3 4 4 4
-4 -4 -4 -3 -2 -1 -1 -1 -1 -2 -2 -3 -3 -2 -2 -1 -0 1 1 1 2 2 2 3 4 5 5 5 5 6 6 6
-4 -4 -4 -3 -2 -2 -1 -1 -1 -1 -1 -2 -2 -2 -1 -0 1 2 2 2 2 2 3 4 6 7 7 7 7 7 7 7
-5 -5 -4 -3 -2 -1 -0 0 0 0 1 0 -0 -0 0 1 2 3 3 3 3 3 4 5 7 8 8 8 8 8 8 8
-4 -4 -2 -1 -1 -0 1 1 2 2 2 2 1 1 2 2 3 4 4 4 3 3 4 5 6 8 8 8 8 8 9 9
-4 -3 -1 -0 0 1 1 2 2 3 3 3 2 2 2 3 3 4 4 4 4 4 4 5 6 7 7 8 8 8 9 9
-3 -1 0 1 1 2 2 2 3 3 4 4 4 4 4 4 4 4 4 4 4 4 4 4 5 6 6 7 7 7 8 8
-1 0 1 2 2 3 3 4 4 4 5 5 5 5 5 5 5 5 4 4 4 4 4 4 4 5 6 6 6 6 7 7
1 2 3 3 4 4 5 5 5 5 5 5 6 6 7 7 7 6 6 5 5 4 4 4 4 4 5 5 6 6 6 6
3 3 4 4 5 5 5 5 5 6 6 6 7 7 8 9 8 8 7 7 6 5 4 4 3 3 4 4 5 5 5 5
4 4 4 5 5 5 5 6 6 6 7 7 8 8 9 9 9 8 7 7 6 5 5 4 3 3 3 3 3 4 4 4
5 5 5 5 5 6 6 6 6 7 7 8 8 9 9 8 8 7 7 6 6 5 5 4 4 3 3 3 3 3 3 4
5 5 5 5 6 6 6 6 6 7 7 8 8 8 8 8 7 7 7 6 6 6 5 5 4 4 4 3 3 3 4 4
5 5 5 5 5 5 5 6 6 7 7 8 8 8 8 7 7 7 7 6 6 6 6 6 6 6 6 5 5 5 5 5
5 5 5 5 5 5 5 5 6 6 7 8 8 8 8 7 7 7 6 6 6 6 6 7 7 8 8 7 7 6 6 6
5 5 5 4 4 5 5 5 6 6 7 8 8 8 8 7 7 7 6 6 6 6 6 7 8 8 8 8 8 7 7 7